Weather History for Triuchirapalli, India

Change the Weather History Date:

Friday, December 21, 2012

  Actual Average Record
Temperature  
Mean Temperature 80 °F -  
Max Temperature 90 °F 83 °F 90 °F (2012)
Min Temperature 71 °F 72 °F 67 °F (2013)
Cooling Degree Days 16    
Growing Degree Days 30 (Base 50)    
Moisture  
Dew Point 69 °F    
Average Humidity 70    
Maximum Humidity 89    
Minimum Humidity 38    
Precipitation  
Precipitation 0.00 in - - ()
Sea Level Pressure  
Sea Level Pressure 29.86 in    
Wind  
Wind Speed 8 mph ()    
Max Wind Speed 18 mph    
Max Gust Speed -    
Visibility 2.7 miles    
Events      
Averages and records for this station are not official NWS values.
T = Trace of Precipitation, MM = Missing Value Source: Averaged Metar Reports

Daily Weather History Graph

Daily Weather History Graph

Search for Another Location

Airport:

Trip Planner

Search our weather history database for the weather conditions in past years. The results will help you decide how hot, cold, wet, or windy it might be!

Date:

Astronomy

Dec. 21, 2012 Rise Set
Actual Time 6:28 AM IST 5:58 PM IST
Civil Twilight 6:05 AM IST 6:21 PM IST
Nautical Twilight 5:39 AM IST 6:47 PM IST
Astronomical Twilight 5:12 AM IST 7:13 PM IST
Moon 12:48 PM IST (12/21) 12:36 AM IST (12/21)
Length of Visible Light 12h 15m
Length of Day
11h 29m
First Quarter, 60% of the Moon is Illuminated
Dec 21
First Quarter
Dec 28
Full
Jan 5
Last Quarter
Jan 12
New
Jan 19
First Quarter

Hourly Weather History & Observations

Time (IST) Temp. Heat Index Dew Point Humidity Pressure Visibility Wind Dir Wind Speed Gust Speed Precip Events Conditions
12:10 AM 75.2 °F - 69.8 °F 83% 29.89 in 2.5 mi NE 6.9 mph - N/A   Haze
12:40 AM 75.2 °F - 69.8 °F 83% 29.89 in 2.5 mi NE 9.2 mph - N/A   Haze
1:10 AM 75.2 °F - 69.8 °F 83% 29.89 in 2.5 mi NE 6.9 mph - N/A   Haze
1:40 AM 75.2 °F - 69.8 °F 83% 29.86 in 2.5 mi NE 9.2 mph - N/A   Haze
2:10 AM 75.2 °F - 69.8 °F 83% 29.86 in 2.5 mi NE 9.2 mph - N/A   Haze
2:30 AM 74 °F - 70 °F 83% 29.86 in 1 mi NE 9.2 mph - -   Haze
2:40 AM 73.4 °F - 69.8 °F 88% 29.86 in 2.5 mi NE 10.4 mph - N/A   Haze
3:10 AM 73.4 °F - 68.0 °F 83% 29.86 in 2.5 mi NE 6.9 mph - N/A   Haze
3:40 AM 73.4 °F - 69.8 °F 88% 29.86 in 2.5 mi NE 6.9 mph - N/A   Haze
4:10 AM 73.4 °F - 68.0 °F 83% 29.83 in 2.2 mi NE 5.8 mph - N/A   Haze
4:40 AM 73.4 °F - 68.0 °F 83% 29.86 in 2.2 mi ENE 6.9 mph - N/A   Haze
5:10 AM 71.6 °F - 68.0 °F 88% 29.86 in 2.2 mi NE 9.2 mph - N/A   Haze
5:30 AM 72 °F - 68 °F 85% 29.85 in 1 mi NE 9.2 mph - -   Haze
5:40 AM 71.6 °F - 68.0 °F 88% 29.86 in 2.2 mi NE 6.9 mph - N/A   Haze
6:40 AM 71.6 °F - 68.0 °F 88% 29.86 in 1.6 mi NE 5.8 mph - N/A   Haze
7:10 AM 73.4 °F - 68.0 °F 83% 29.86 in 1.6 mi NE 10.4 mph - N/A   Haze
7:40 AM 75.2 °F - 68.0 °F 78% 29.89 in 1.6 mi NE 11.5 mph - N/A   Haze
8:10 AM 77.0 °F - 68.0 °F 74% 29.89 in 1.6 mi NE 12.7 mph - N/A   Haze
8:30 AM 77 °F - 69 °F 69% 29.90 in 1 mi NE 11.5 mph - -   Haze
9:10 AM 78.8 °F - 69.8 °F 74% 29.89 in 1.9 mi NE 18.4 mph - N/A   Haze
9:40 AM 80.6 °F 83.2 °F 68.0 °F 65% 29.92 in 2.5 mi NE 13.8 mph - N/A   Haze
10:10 AM 82.4 °F 84.6 °F 66.2 °F 58% 29.92 in 2.5 mi NNE 12.7 mph - N/A   Haze
11:10 AM 84.2 °F 88.4 °F 69.8 °F 62% 29.89 in 3.1 mi ENE 13.8 mph - N/A   Haze
11:30 AM 85 °F - 68 °F 47% 29.89 in 2 mi NE 11.5 mph - -   Haze
11:40 AM 86.0 °F 90.4 °F 69.8 °F 58% 29.89 in 3.7 mi NE 11.5 mph - N/A   Haze
12:10 PM 86.0 °F 90.4 °F 69.8 °F 58% 29.86 in 3.7 mi NE 13.8 mph - N/A   Scattered Clouds
12:40 PM 86.0 °F 90.4 °F 69.8 °F 58% 29.86 in 3.7 mi NE 8.1 mph - N/A   Haze
1:10 PM 86.0 °F 89.4 °F 68.0 °F 55% 29.86 in 3.7 mi NE 9.2 mph - N/A   Scattered Clouds
1:40 PM 87.8 °F 91.4 °F 68.0 °F 52% 29.83 in 3.7 mi NE 17.3 mph - N/A   Scattered Clouds
2:10 PM 87.8 °F 91.4 °F 68.0 °F 52% 29.83 in 3.7 mi NE 11.5 mph - N/A   Scattered Clouds
2:30 PM 90 °F - 68 °F 38% 29.82 in 2 mi NE 9.2 mph - -   Haze
2:40 PM 89.6 °F 93.4 °F 68.0 °F 49% 29.83 in 3.7 mi NE 9.2 mph - N/A   Scattered Clouds
3:10 PM 89.6 °F 93.4 °F 68.0 °F 49% 29.83 in 3.7 mi ENE 9.2 mph - N/A   Scattered Clouds
3:40 PM 87.8 °F 91.4 °F 68.0 °F 52% 29.80 in 3.7 mi ENE 9.2 mph - N/A   Scattered Clouds
4:10 PM 87.8 °F 91.4 °F 68.0 °F 52% 29.80 in 3.7 mi East 11.5 mph - N/A   Partly Cloudy
4:40 PM 86.0 °F 90.4 °F 69.8 °F 58% 29.80 in 3.7 mi NE 11.5 mph - N/A   Partly Cloudy
5:10 PM 86.0 °F 90.4 °F 69.8 °F 58% 29.80 in 3.7 mi East 6.9 mph - N/A   Partly Cloudy
5:30 PM 85 °F - 66 °F 44% 29.81 in 2 mi East 9.2 mph - -   Haze
5:40 PM 84.2 °F 88.4 °F 69.8 °F 62% 29.80 in 3.7 mi East 9.2 mph - N/A   Partly Cloudy
6:10 PM 82.4 °F 85.4 °F 68.0 °F 62% 29.83 in 3.7 mi East 6.9 mph - N/A   Partly Cloudy
6:40 PM 82.4 °F 85.4 °F 68.0 °F 62% 29.83 in 3.7 mi East 9.2 mph - N/A   Partly Cloudy
7:10 PM 80.6 °F 83.2 °F 68.0 °F 65% 29.83 in 3.7 mi East 9.2 mph - N/A   Partly Cloudy
8:10 PM 78.8 °F - 68.0 °F 69% 29.86 in 3.1 mi East 9.2 mph - N/A   Haze
8:30 PM 78 °F - 69 °F 68% 29.88 in 2 mi East 9.2 mph - -   Haze
8:40 PM 78.8 °F - 69.8 °F 74% 29.89 in 3.1 mi ENE 6.9 mph - N/A   Haze
9:10 PM 77.0 °F - 69.8 °F 78% 29.89 in 3.1 mi ENE 5.8 mph - N/A   Haze
9:40 PM 77.0 °F - 71.6 °F 83% 29.89 in 3.1 mi ENE 3.5 mph - N/A   Haze
10:10 PM 77.0 °F - 71.6 °F 83% 29.89 in 3.1 mi NE 5.8 mph - N/A   Haze
10:40 PM 77.0 °F - 71.6 °F 83% 29.89 in 3.1 mi NE 6.9 mph - N/A   Haze
11:10 PM 75.2 °F - 71.6 °F 89% 29.89 in 3.1 mi NNE 9.2 mph - N/A   Haze
11:30 PM 74 °F - 69 °F 79% 29.90 in 2 mi NNE 5.8 mph - -   Haze
11:40 PM 75.2 °F - 69.8 °F 83% 29.89 in 3.1 mi NNE 9.2 mph - N/A   Haze